Wind_Speed
43 42 41 41 41 41 41 41 41 40 39 39 38 37 36 36 36 36 35 36 35 35 34 34 33 33 32 31 31 31 31 31 31 32 32 33 33 34 34 35 35 36 36
43 42 41 41 41 41 41 41 41 41 40 39 38 38 37 37 36 35 35 35 35 35 34 34 33 32 32 31 31 31 31 32 31 31 32 32 33 33 34 35 35 36 37
42 42 42 41 40 40 40 41 41 41 40 39 39 38 37 37 36 35 35 35 35 35 34 33 32 32 32 32 32 32 31 32 32 33 33 34 34 34 34 35 36 37 38
43 42 42 41 41 40 40 41 40 40 39 39 39 38 38 37 36 36 35 35 35 34 33 33 33 32 32 32 31 31 32 32 33 33 34 35 36 36 35 36 37 38 39
43 42 42 41 42 41 41 40 41 40 40 39 39 39 38 37 36 36 36 35 35 34 33 33 33 32 32 32 32 32 33 33 34 34 35 35 36 37 38 37 38 39 41
43 43 43 42 42 42 42 40 41 41 40 40 39 39 39 38 37 36 36 36 35 35 34 34 33 33 33 33 33 33 33 34 35 35 36 36 37 38 39 39 40 41 41
42 42 42 42 42 42 42 41 40 40 40 40 40 39 39 39 37 36 37 37 36 36 35 35 34 34 34 34 34 34 34 35 36 36 37 37 38 39 40 41 42 42 42
40 41 41 42 41 41 41 41 41 41 41 40 39 38 38 38 39 38 37 37 37 36 36 36 35 34 34 34 35 35 35 36 36 37 37 38 39 40 42 42 43 43 43
40 40 40 41 41 41 41 40 40 40 40 39 39 38 38 39 39 38 38 37 37 37 36 35 35 35 35 35 36 36 36 37 37 38 38 39 40 41 43 43 45 45 45
39 39 40 40 40 40 40 40 40 39 40 39 39 38 39 39 39 39 38 38 37 37 36 36 35 35 35 35 36 36 37 37 37 38 39 40 41 42 43 44 45 46 47
37 38 39 39 39 39 39 40 39 39 39 39 39 39 39 39 40 40 39 38 37 36 36 36 36 36 36 36 37 37 37 37 38 38 39 40 41 43 44 45 46 47 48
37 37 37 38 39 39 39 39 40 39 39 39 39 39 39 39 40 40 39 39 38 37 37 37 37 37 36 37 38 38 38 38 38 39 40 41 42 44 44 45 47 48 49
36 37 37 37 38 39 39 39 40 40 39 39 39 39 39 39 39 39 39 39 38 37 37 37 37 37 37 38 38 38 38 38 39 40 41 42 43 44 45 46 47 48 49
35 35 36 37 38 39 39 39 39 40 40 39 39 39 39 39 39 39 39 39 39 38 37 38 37 37 38 38 38 38 38 39 39 40 42 43 44 44 45 46 47 48 49
34 34 35 36 38 39 39 39 39 40 39 39 39 38 38 38 38 38 38 38 38 38 38 37 37 37 38 38 38 38 38 39 40 40 42 43 44 45 46 47 47 48 49
33 33 34 35 36 37 37 38 39 39 39 38 38 38 38 38 38 38 38 38 38 38 39 38 38 38 38 38 37 38 39 39 40 40 42 42 43 44 45 46 46 47 47
33 33 33 34 34 34 35 36 37 37 37 37 37 37 38 38 39 39 38 38 38 38 38 38 38 38 38 38 38 38 39 39 40 40 41 42 43 43 44 44 45 46 45
33 33 33 33 33 34 34 35 36 37 37 37 37 37 37 37 37 37 37 37 37 38 38 38 38 38 38 38 39 39 39 39 39 40 41 42 42 42 43 43 44 43 42
33 33 33 33 33 34 34 34 35 36 36 36 36 36 36 36 37 37 37 36 37 37 37 37 37 37 37 38 38 38 38 38 39 39 40 41 41 42 42 42 42 41 41
32 33 32 32 33 34 34 34 34 34 34 34 34 34 35 35 35 36 36 36 36 36 36 36 36 37 37 37 37 38 38 38 38 39 39 40 41 41 40 40 39 40 40
30 31 32 32 32 33 34 33 33 33 33 33 33 34 34 34 35 35 35 35 35 35 36 36 36 36 37 37 37 37 37 38 38 38 39 39 39 38 38 38 38 39 39
29 30 31 32 31 32 32 32 32 32 33 33 34 34 34 34 34 34 34 35 35 35 36 36 36 36 36 36 36 36 36 37 37 38 38 38 37 37 37 37 38 38 38
30 30 30 31 31 31 31 31 31 32 32 33 33 32 32 33 33 33 34 34 34 35 35 35 35 35 35 35 35 36 36 36 37 37 37 36 36 36 36 36 37 37 36
29 30 30 30 30 32 32 32 31 31 32 32 32 32 32 32 32 32 33 33 34 34 35 35 34 34 34 35 35 35 35 35 36 35 35 34 34 34 34 34 34 34 33
28 29 30 30 30 30 31 32 32 31 31 32 32 32 32 32 31 31 31 32 33 33 34 34 34 34 34 34 34 34 34 34 33 33 32 32 32 32 31 31 31 31 29
28 28 29 29 29 29 30 30 30 31 31 32 32 32 31 31 31 31 31 32 32 33 33 33 33 33 33 33 33 33 32 32 31 30 29 29 29 29 29 29 28 28 27
Wind_Direction
233 234 234 235 235 235 236 237 239 242 243 244 246 247 249 251 253 255 257 260 262 264 267 268 269 271 273 275 276 277 278 280 282 284 286 288 289 291 292 293 294 295 296
233 233 234 235 236 237 237 238 240 242 243 244 246 248 249 250 252 254 256 258 260 263 265 267 268 270 272 275 276 277 278 280 282 284 285 287 289 291 293 294 295 296 297
233 233 233 234 235 237 237 239 240 241 243 245 246 248 249 250 253 253 255 257 260 262 263 265 267 270 273 275 277 278 280 281 283 285 286 288 289 291 292 294 295 296 296
234 234 234 235 236 237 238 239 239 241 243 245 246 247 248 250 252 253 255 257 259 261 263 266 268 270 272 274 276 277 279 281 284 286 287 288 290 291 292 293 295 296 296
234 235 236 236 236 236 237 239 240 241 243 245 246 248 248 250 252 253 254 256 258 261 263 266 268 270 272 273 275 277 279 282 284 286 288 289 291 292 293 294 295 296 297
235 235 236 236 237 237 237 239 240 241 243 245 246 248 248 249 252 253 254 256 258 260 263 266 268 270 272 274 275 277 279 281 284 286 287 289 291 293 294 295 296 296 297
236 236 236 237 238 238 238 239 241 241 243 244 245 246 247 249 251 253 254 256 258 260 263 266 268 270 272 273 275 277 279 281 284 286 288 290 291 293 295 296 297 297 298
236 237 236 236 237 237 238 239 240 241 243 244 244 245 247 249 250 253 254 256 259 261 263 265 268 270 272 274 275 277 279 282 284 286 288 290 292 294 295 297 298 298 299
236 236 235 236 236 236 237 238 240 241 242 243 244 245 247 248 251 252 254 257 259 260 263 265 267 269 271 273 276 278 281 283 285 287 289 291 293 295 296 297 298 299 299
237 236 235 236 237 237 237 237 239 240 242 243 244 245 246 248 250 252 255 257 258 260 262 264 266 269 272 274 276 279 282 284 286 287 289 291 294 296 297 298 299 299 300
239 238 238 237 237 237 237 237 238 240 242 243 244 245 247 249 251 253 255 256 258 260 262 263 266 269 272 275 277 280 282 284 286 288 290 293 295 296 297 298 299 300 300
238 238 238 238 238 238 238 238 239 240 242 244 244 246 247 249 251 253 255 256 258 260 262 264 267 269 272 275 277 279 282 284 286 288 291 294 295 297 298 299 300 300 301
238 238 238 238 238 239 240 240 240 241 243 244 245 246 248 249 251 253 254 256 257 260 262 264 267 270 273 275 277 279 281 283 286 289 292 294 296 297 298 300 301 301 303
238 238 238 239 238 239 240 241 242 242 243 244 245 247 247 248 250 251 252 254 257 259 262 265 268 270 273 276 278 280 282 284 286 289 292 295 296 298 299 300 301 303 304
239 238 238 239 240 239 240 241 242 243 243 244 245 247 247 248 250 251 253 256 258 259 262 265 267 270 273 276 278 281 283 285 288 291 294 295 297 299 300 301 302 304 305
239 238 238 240 241 241 241 241 241 243 243 244 245 246 247 248 249 251 254 256 258 260 262 264 268 270 273 276 279 281 284 286 289 292 294 296 298 300 301 303 304 305 306
239 239 239 240 241 240 240 240 240 242 243 244 246 246 247 248 250 251 254 256 259 261 263 265 267 270 272 276 279 281 284 287 289 292 294 296 298 300 301 303 305 306 307
239 239 239 240 241 241 241 242 242 242 243 244 246 247 247 248 249 251 254 257 260 262 264 265 268 271 274 277 280 283 284 287 290 292 294 296 298 300 301 303 304 306 307
239 240 239 240 240 241 242 242 243 242 243 244 246 246 247 248 249 251 254 257 260 262 264 266 268 271 274 277 280 283 285 288 290 292 295 297 298 300 302 303 305 306 307
240 240 240 240 240 240 241 242 242 242 242 243 245 246 247 248 250 252 255 258 260 263 265 266 269 272 275 278 281 283 285 287 290 292 295 297 298 300 301 303 304 306 307
239 240 241 242 241 240 241 242 243 242 242 243 244 246 248 250 252 253 256 259 261 263 265 267 269 272 276 279 281 283 286 288 290 292 294 296 298 299 301 302 304 306 307
238 239 240 241 240 240 240 242 243 244 243 244 246 247 249 252 253 255 256 258 260 263 265 267 269 272 276 278 281 283 286 288 290 292 294 295 297 298 300 302 304 306 307
240 240 239 240 240 240 240 242 244 245 246 246 246 248 250 253 254 256 257 258 260 262 264 267 269 272 275 279 281 283 285 288 290 292 293 295 295 296 299 301 304 306 307
241 240 239 240 240 241 241 242 244 245 247 248 249 250 252 253 255 256 258 259 261 262 264 266 268 272 276 278 280 283 285 287 289 291 293 294 294 296 300 302 305 307 309
241 241 240 240 240 241 242 242 243 245 247 249 251 252 253 253 255 256 258 259 261 263 265 267 269 272 275 278 280 282 284 286 288 289 291 293 295 298 300 303 306 309 310
242 242 240 239 239 241 242 243 244 246 249 251 252 253 254 255 255 256 258 260 262 263 265 268 270 272 274 276 279 281 282 284 286 288 290 292 296 298 301 303 307 309 310
Height
5708 5713 5717 5721 5726 5731 5735 5739 5743 5747 5751 5755 5758 5761 5764 5767 5770 5772 5773 5775 5777 5778 5779 5780 5781 5781 5782 5782 5782 5781 5781 5780 5780 5779 5778 5777 5775 5774 5772 5770 5768 5766 5763
5700 5705 5709 5714 5719 5723 5728 5732 5736 5740 5744 5747 5750 5754 5756 5759 5762 5764 5766 5768 5769 5771 5772 5773 5774 5774 5775 5775 5775 5774 5774 5773 5772 5772 5771 5770 5769 5767 5764 5762 5760 5758 5755
5692 5697 5702 5707 5711 5716 5720 5724 5728 5732 5736 5739 5743 5746 5749 5751 5754 5757 5759 5760 5762 5764 5765 5766 5767 5767 5768 5768 5767 5767 5767 5766 5765 5764 5763 5762 5761 5760 5758 5755 5752 5749 5747
5684 5689 5694 5699 5704 5708 5712 5716 5720 5724 5728 5731 5735 5738 5741 5744 5747 5749 5751 5753 5755 5757 5758 5759 5760 5760 5760 5760 5760 5760 5759 5759 5758 5757 5755 5754 5752 5751 5750 5748 5744 5741 5738
5676 5682 5687 5691 5696 5700 5704 5708 5712 5716 5720 5724 5727 5730 5733 5736 5739 5741 5744 5746 5748 5749 5751 5752 5752 5752 5753 5753 5752 5752 5752 5751 5750 5749 5747 5746 5744 5742 5740 5739 5737 5733 5729
5668 5673 5678 5683 5687 5692 5696 5700 5704 5708 5712 5716 5719 5722 5725 5728 5731 5733 5736 5738 5740 5742 5743 5744 5745 5745 5745 5745 5745 5745 5744 5743 5742 5741 5739 5738 5736 5733 5731 5729 5727 5724 5721
5660 5665 5670 5675 5680 5684 5688 5692 5696 5700 5704 5707 5710 5714 5717 5720 5723 5726 5728 5731 5733 5734 5735 5736 5737 5737 5737 5738 5737 5737 5736 5735 5734 5733 5731 5729 5727 5724 5722 5719 5717 5714 5711
5653 5657 5662 5667 5671 5676 5680 5684 5688 5692 5696 5699 5702 5706 5709 5712 5715 5718 5720 5723 5725 5726 5728 5728 5729 5730 5730 5730 5729 5729 5728 5727 5726 5724 5723 5720 5718 5715 5712 5709 5706 5704 5702
5645 5649 5654 5658 5663 5667 5672 5676 5680 5684 5688 5691 5694 5698 5701 5704 5707 5710 5712 5714 5716 5718 5719 5720 5721 5722 5722 5722 5721 5721 5720 5719 5717 5716 5714 5712 5709 5706 5703 5699 5696 5693 5690
5637 5641 5645 5650 5654 5659 5663 5667 5671 5675 5679 5683 5686 5690 5693 5696 5698 5701 5704 5706 5708 5710 5711 5712 5713 5713 5714 5713 5713 5712 5712 5711 5709 5707 5705 5703 5700 5697 5693 5689 5685 5681 5677
5629 5633 5637 5642 5646 5650 5654 5659 5663 5667 5671 5675 5678 5681 5685 5688 5690 5693 5695 5698 5700 5701 5703 5704 5705 5705 5705 5705 5704 5704 5703 5702 5700 5698 5696 5693 5690 5687 5683 5679 5675 5670 5666
5620 5625 5629 5633 5637 5642 5646 5650 5655 5659 5662 5666 5669 5673 5676 5679 5681 5684 5686 5689 5691 5693 5694 5695 5696 5696 5696 5696 5696 5695 5694 5693 5691 5689 5687 5684 5681 5677 5673 5669 5664 5660 5655
5612 5616 5621 5625 5629 5633 5638 5642 5646 5650 5653 5657 5660 5664 5667 5670 5673 5675 5677 5680 5682 5684 5685 5686 5687 5687 5687 5687 5686 5686 5685 5684 5682 5680 5677 5674 5671 5667 5663 5658 5654 5649 5643
5604 5608 5613 5617 5621 5625 5629 5633 5637 5641 5644 5648 5651 5655 5658 5661 5663 5666 5668 5671 5673 5674 5676 5677 5677 5678 5678 5677 5677 5676 5675 5674 5672 5670 5667 5664 5660 5657 5652 5648 5643 5638 5632
5597 5601 5605 5608 5612 5616 5620 5624 5627 5631 5635 5639 5642 5646 5649 5651 5654 5657 5659 5661 5664 5665 5666 5667 5668 5668 5668 5668 5667 5667 5666 5664 5662 5660 5657 5653 5650 5646 5641 5637 5632 5627 5621
5589 5593 5596 5600 5603 5607 5611 5615 5618 5622 5626 5630 5633 5636 5639 5642 5645 5648 5650 5652 5654 5656 5657 5658 5659 5659 5659 5659 5658 5657 5656 5655 5653 5650 5647 5643 5640 5636 5631 5626 5621 5616 5610
5581 5585 5588 5592 5595 5598 5602 5606 5609 5613 5617 5621 5624 5627 5630 5633 5636 5639 5641 5643 5645 5647 5648 5649 5649 5649 5649 5649 5648 5648 5647 5645 5643 5640 5637 5634 5630 5626 5621 5616 5611 5605 5599
5574 5577 5580 5584 5587 5590 5594 5597 5601 5604 5608 5611 5615 5618 5621 5624 5626 5629 5632 5634 5635 5637 5638 5639 5640 5640 5640 5639 5639 5638 5637 5635 5633 5630 5627 5624 5620 5615 5611 5607 5602 5596 5591
5566 5569 5572 5576 5579 5582 5585 5589 5592 5595 5599 5603 5606 5609 5612 5614 5617 5620 5622 5624 5626 5627 5628 5629 5630 5630 5630 5630 5629 5628 5627 5625 5623 5620 5617 5613 5610 5606 5602 5598 5593 5588 5583
5558 5561 5564 5567 5571 5574 5577 5580 5583 5587 5590 5594 5597 5600 5603 5605 5608 5610 5613 5614 5616 5618 5619 5620 5620 5621 5621 5620 5619 5618 5617 5615 5613 5610 5607 5604 5600 5596 5592 5588 5584 5580 5575
5550 5553 5556 5559 5562 5565 5569 5572 5575 5578 5582 5585 5588 5591 5594 5596 5599 5601 5603 5605 5607 5608 5609 5610 5611 5611 5611 5610 5609 5608 5607 5605 5603 5601 5598 5594 5590 5587 5583 5579 5575 5571 5566
5543 5546 5549 5551 5554 5557 5561 5564 5567 5570 5573 5577 5580 5582 5585 5587 5589 5591 5593 5596 5597 5599 5600 5601 5601 5601 5601 5600 5599 5598 5597 5595 5593 5591 5588 5585 5581 5578 5575 5571 5567 5562 5558
5535 5538 5541 5544 5546 5549 5553 5556 5559 5562 5565 5568 5571 5574 5576 5578 5581 5583 5585 5586 5588 5590 5591 5591 5592 5592 5592 5591 5590 5588 5587 5585 5583 5581 5579 5576 5572 5569 5566 5562 5558 5554 5550
5528 5530 5533 5536 5539 5542 5545 5548 5551 5554 5557 5560 5563 5565 5568 5570 5572 5574 5576 5577 5579 5580 5581 5582 5583 5583 5582 5581 5580 5579 5577 5576 5574 5572 5569 5567 5564 5561 5558 5554 5551 5547 5543
5520 5523 5526 5528 5531 5534 5537 5540 5543 5546 5549 5552 5554 5557 5559 5561 5563 5565 5567 5568 5570 5571 5572 5573 5573 5573 5573 5572 5571 5569 5568 5566 5565 5563 5561 5559 5556 5553 5550 5547 5544 5540 5536
5513 5515 5518 5521 5524 5527 5530 5533 5536 5539 5542 5544 5546 5549 5551 5553 5555 5556 5558 5559 5561 5562 5562 5563 5563 5563 5563 5562 5561 5560 5559 5557 5556 5554 5553 5551 5549 5546 5544 5541 5537 5534 5530